Regional Weather Roundup
Issued by NWS

Home | Current Version | Previous Version | Graphics & Text | Print | Product List | Glossary On
Versions: 1 2 3 4 5 6 7 8 9 10 11 12 13 14 15 16 17 18 19 20 21 22 23 24 25 26 27 28 29 30 31 32 33 34 35 36 37 38 39 40 41 42 43 44 45 46 47 48 49 50
000
ASUS43 KOAX 171310
RWRNE

WEATHER ROUNDUP FOR NEBRASKA
NATIONAL WEATHER SERVICE OMAHA NE
700 AM CST TUE JAN 17 2017

NOTES: SATELLITE DATA IS BEING USED TO AUGMENT CLOUD COVER ABOVE
       12000 FEET.
       "FAIR" INDICATES FEW OR NO CLOUDS BELOW 12,000 FEET WITH NO
       SIGNIFICANT WEATHER AND/OR OBSTRUCTIONS TO VISIBILITY.

  * THESE STATIONS DO NOT REPORT WEATHER SUCH AS RAIN...SNOW OR FOG.

NEZ001>004-019>022-054>056-171400-
NEBRASKA PANHANDLE

CITY           SKY/WX    TMP DP  RH WIND       PRES   REMARKS
SCOTTSBLUFF    CLOUDY    14   9  80 N3        30.03F
ALLIANCE       CLOUDY    10   6  84 SW5       30.02S WCI   2
CHADRON        CLOUDY     9   3  77 SW6       30.01F WCI  -1
KIMBALL        CLEAR     12   9  86 W9        30.03S WCI   0
SIDNEY         CLOUDY    12   6  77 W9        30.04F WCI   0
$$

NEZ057>060-069>072-079>082-171400-
SOUTHWEST NEBRASKA

CITY           SKY/WX    TMP DP  RH WIND       PRES   REMARKS
NORTH PLATTE   CLOUDY    21  17  84 W5        30.06S WCI  15
IMPERIAL       CLOUDY    21  15  78 W3        30.08S
LEXINGTON      CLOUDY    25  20  82 NW8       30.07S WCI  16
MCCOOK         CLOUDY    24  21  88 W7        30.09S WCI  16
OGALLALA       CLOUDY    19  15  85 W9        30.07S WCI   8
$$

NEZ005>010-023>029-035>040-094-171400-
NORTH CENTRAL NEBRASKA

CITY           SKY/WX    TMP DP  RH WIND       PRES   REMARKS
VALENTINE      CLEAR     13   9  84 SW8       30.03S WCI   2
AINSWORTH      CLEAR     16  14  92 W6        30.03S WCI   8
BROKEN BOW     CLOUDY    23  18  81 CALM      30.03F
O`NEILL        CLEAR     18  15  88 W7        30.03S WCI   9
ORD            CLOUDY    19  14  81 CALM      30.04R
THEDFORD       CLOUDY    20  17  86 W5        30.04S WCI  13
$$

NEZ041-046>049-061>064-073>077-083>087-171400-
SOUTH CENTRAL NEBRASKA

CITY           SKY/WX    TMP DP  RH WIND       PRES   REMARKS
GRAND ISLAND   CLOUDY    21  19  92 NW7       30.07  WCI  12
AURORA         CLEAR     23  21  92 CALM      30.06R
HASTINGS       CLEAR     24  20  84 NW9       30.07R WCI  14
HEBRON         PTCLDY    27  24  88 CALM      30.08R
HOLDREGE       CLEAR     26  22  85 CALM      30.06S
KEARNEY *      CLEAR     23  18  80 CALM      30.06S
YORK           CLEAR     25  21  86 MISG      30.06R
$$

NEZ011>018-030>034-042>045-171400-
NORTHEAST NEBRASKA

CITY           SKY/WX    TMP DP  RH WIND       PRES   REMARKS
NORFOLK        CLOUDY    17  13  84 NW8       30.03S WCI   7
ALBION         CLOUDY    17  13  86 CALM      30.03F FOG
BLAIR          CLOUDY    25  23  92 NW7       30.02R FOG     WCI  18
FREMONT        CLOUDY    24  21  87 NW15      30.05R WCI  11
TEKAMAH        CLOUDY    25  20  81 NW12      30.05R WCI  14
WAYNE          CLOUDY    17  13  87 CALM      30.04S
$$

NEZ050>053-065>068-078-088>093-171400-
SOUTHEAST NEBRASKA

CITY           SKY/WX    TMP DP  RH WIND       PRES   REMARKS
LINCOLN        PTCLDY    25  19  78 NW8       30.09R WCI  16
OMAHA EPPLEY   FLURRIES  28  24  85 NW12      30.04R WCI  18
BEATRICE       CLOUDY    29  26  88 NW6       30.07R WCI  23
FALLS CITY     CLOUDY    32  30  92 NW13      30.04R WCI  22
NEBRASKA CITY  CLOUDY    30  30 100 NW9       30.04R FOG     WCI  21
PLATTSMOUTH    CLOUDY    29  26  87 W10       30.04R FOG     WCI  20
$$

NEZ044-045-051>053-067-171400-
OMAHA AREA

CITY           SKY/WX    TMP DP  RH WIND       PRES   REMARKS
OMAHA EPPLEY   FLURRIES  28  24  85 NW12      30.04R WCI  18
BLAIR          CLOUDY    25  23  92 NW7       30.02R FOG     WCI  18
FREMONT        CLOUDY    24  21  87 NW15      30.05R WCI  11
MILLARD        CLOUDY    29  25  85 W9        30.05R WCI  20
OFFUTT AFB     CLOUDY    29  29 100 W7        30.04R WCI  22
PLATTSMOUTH    CLOUDY    29  26  87 W10       30.04R FOG     WCI  20
WAHOO          CLOUDY    25  20  83 NW14      30.05R WCI  13
$$



USA.gov is the U.S. government's official web portal to all federal, state and local government web resources and services.